Tracking 28091 objects as of 30-Sep-2023
HD Live streaming from Space Station
objects crossing your sky now

GLOBALSTAR M047

Track GLOBALSTAR M047 now!
10-day predictions
GLOBALSTAR M047 is classified as:


NORAD ID: 25772
Int'l Code: 1999-031C
Perigee: 1,994.5 km
Apogee: 2,021.5 km
Inclination: 52.0 °
Period: 127.2 minutes
Semi major axis: 8379 km
RCS: 2.931 m2 (large)
Launch date: June 10, 1999
Source: Globalstar (GLOB)
Launch site: AIR FORCE EASTERN TEST RANGE (AFETR)
Your satellite tracking list
Your tracking list is empty




NASA's NSSDC Master Catalog

Two Line Element Set (TLE):
1 25772U 99031C   23272.33848929 -.00000071  00000-0 -29137-4 0  9993
2 25772  51.9812 231.5144 0016088 268.0401  91.8563 11.31915719400122
Source of the keplerian elements: AFSPC